Date String (YYYY-MM-DD hh:mm:ss) UTC,Instrument flags,Ambient pressure (hPa),Sample flow (lpm),Bypass flow (lpm),Sample temperature (°C),Ambient temperature (°C),ASC tube jacket temperature (°C),LED temperature (°C),Box temperature (°C),Sample RH (%),Span deviation,Mass concentration (μg/m³),Mass concentration (μg/m³),Mass concentration (μg/m³)
DateTimeUTC,F1_M11,P_M11,Q1_M11,Q2_M11,T1_M11,T2_M11,T3_M11,T4_M11,T5_M11,U1_M11,ZSPAN_M11,X0_M11,X2_M11,X1_M11
2022-07-09 10:00:00,,0832.1,5.00,0.00,29.9,28.7,00.0,38.6,31.7,22.2,0000.0,0006.93,0003.72,0003.16
2022-07-09 10:01:00,,0832.1,5.00,0.00,29.9,28.8,00.0,38.6,31.8,22.0,0000.0,0007.07,0003.72,0003.17
2022-07-09 10:02:00,,0832.1,5.00,0.00,29.9,28.8,00.0,38.6,31.8,22.2,0000.0,0006.95,0003.69,0003.17
2022-07-09 10:03:00,,0832.1,4.99,0.00,29.9,28.9,00.0,38.7,31.9,22.4,0000.0,0007.21,0003.72,0003.17
2022-07-09 10:04:00,,0832.1,5.01,0.00,30.0,28.9,00.0,38.7,31.9,22.7,0000.0,0007.50,0003.74,0003.18
2022-07-09 10:05:00,,0832.2,4.99,0.00,30.0,28.9,00.0,38.7,31.9,22.7,0000.0,0007.73,0003.80,0003.18
2022-07-09 10:06:00,,0832.3,5.01,0.00,30.0,29.0,00.0,38.7,31.9,22.8,0000.0,0007.99,0003.84,0003.19
2022-07-09 10:07:00,,0832.2,4.99,0.00,30.0,28.9,00.0,38.7,31.9,23.1,0000.0,0008.06,0003.83,0003.21
2022-07-09 10:08:00,,0832.2,5.01,0.00,30.0,28.2,00.0,38.6,31.8,23.6,0000.0,0007.96,0003.81,0003.22
2022-07-09 10:09:00,,0832.2,5.00,0.00,30.0,27.6,00.0,38.6,31.7,24.5,0000.0,0007.93,0003.81,0003.25
2022-07-09 10:10:00,,0832.2,5.00,0.00,29.9,27.5,00.0,38.6,31.6,25.3,0000.0,0008.56,0003.86,0003.28
2022-07-09 10:11:00,,0832.2,5.00,0.00,29.8,27.5,00.0,38.6,31.5,25.9,0000.0,0009.03,0003.94,0003.32
2022-07-09 10:12:00,,0832.2,5.00,0.00,29.8,27.6,00.0,38.6,31.5,26.1,0000.0,0009.65,0004.01,0003.38
2022-07-09 10:13:00,,0832.2,5.00,0.00,29.8,27.8,00.0,38.6,31.5,26.1,0000.0,0010.08,0004.07,0003.41
2022-07-09 10:14:00,,0832.2,5.00,0.00,29.7,27.9,00.0,38.5,31.5,26.2,0000.0,0010.15,0004.12,0003.45
2022-07-09 10:15:00,,0832.2,4.99,0.00,29.7,28.0,00.0,38.5,31.5,26.2,0000.0,0010.40,0004.20,0003.49
2022-07-09 10:16:00,,0832.2,5.00,0.00,29.7,28.2,00.0,38.5,31.6,26.3,0000.0,0011.03,0004.24,0003.52
2022-07-09 10:17:00,,0832.2,4.99,0.00,29.8,28.3,00.0,38.6,31.6,26.3,0000.0,0011.00,0004.29,0003.55
2022-07-09 10:18:00,,0832.1,5.00,0.00,29.8,28.4,00.0,38.6,31.6,26.5,0000.0,0011.06,0004.37,0003.59
2022-07-09 10:19:00,,0832.1,5.00,0.00,29.8,28.4,00.0,38.6,31.6,26.5,0000.0,0011.52,0004.46,0003.63
2022-07-09 10:20:00,,0832.1,5.02,0.00,29.8,28.5,00.0,38.6,31.7,26.5,0000.0,0012.34,0004.49,0003.66
2022-07-09 10:21:00,,0832.1,4.99,0.00,29.8,28.6,00.0,38.6,31.7,26.5,0000.0,0012.44,0004.52,0003.68
2022-07-09 10:22:00,,0832.2,5.00,0.00,29.8,28.6,00.0,38.6,31.7,26.5,0000.0,0012.35,0004.58,0003.69
2022-07-09 10:23:00,,0832.2,4.99,0.00,29.9,28.7,00.0,38.6,31.8,26.6,0000.0,0012.44,0004.60,0003.70
2022-07-09 10:24:00,,0832.2,5.00,0.00,29.9,28.8,00.0,38.6,31.8,26.5,0000.0,0011.84,0004.62,0003.72
2022-07-09 10:25:00,,0832.2,5.01,0.00,29.9,28.8,00.0,38.6,31.8,26.5,0000.0,0012.45,0004.65,0003.73
2022-07-09 10:26:00,,0832.2,5.00,0.00,29.9,28.8,00.0,38.7,31.8,26.6,0000.0,0013.24,0004.72,0003.76
2022-07-09 10:27:00,,0832.2,4.99,0.00,30.0,28.9,00.0,38.7,31.8,26.5,0000.0,0013.56,0004.73,0003.78
2022-07-09 10:28:00,,0832.2,4.98,0.00,30.0,28.9,00.0,38.7,31.9,26.5,0000.0,0013.47,0004.75,0003.81
2022-07-09 10:29:00,,0832.3,5.01,0.00,30.0,29.0,00.0,38.7,31.9,26.5,0000.0,0014.15,0004.74,0003.82
2022-07-09 10:30:00,,0832.3,5.00,0.00,30.0,29.0,00.0,38.7,31.9,26.4,0000.0,0014.14,0004.76,0003.84
2022-07-09 10:31:00,,0832.2,5.00,0.00,30.0,29.0,00.0,38.8,31.9,26.2,0000.0,0013.41,0004.81,0003.84
2022-07-09 10:32:00,,0832.3,5.00,0.00,30.1,29.1,00.0,38.8,32.0,26.2,0000.0,0013.26,0004.85,0003.86
2022-07-09 10:33:00,,0832.2,5.00,0.00,30.1,28.8,00.0,38.7,31.9,26.2,0000.0,0012.97,0004.79,0003.86
2022-07-09 10:34:00,,0832.2,5.00,0.00,30.0,27.9,00.0,38.7,31.8,26.2,0000.0,0012.95,0004.76,0003.86
2022-07-09 10:35:00,,0832.2,5.00,0.00,30.0,27.6,00.0,38.7,31.7,26.3,0000.0,0013.14,0004.78,0003.86
2022-07-09 10:36:00,,0832.2,5.01,0.00,29.9,27.5,00.0,38.7,31.6,26.5,0000.0,0012.54,0004.74,0003.86
2022-07-09 10:37:00,,0832.2,5.00,0.00,29.8,27.6,00.0,38.6,31.5,26.5,0000.0,0011.75,0004.69,0003.85
2022-07-09 10:38:00,,0832.2,5.00,0.00,29.8,27.7,00.0,38.6,31.5,26.2,0000.0,0011.02,0004.66,0003.82
2022-07-09 10:39:00,,0832.2,5.01,0.00,29.8,27.9,00.0,38.6,31.5,26.0,0000.0,0011.62,0004.65,0003.80
2022-07-09 10:40:00,,0832.3,5.00,0.00,29.8,28.0,00.0,38.6,31.5,26.2,0000.0,0010.95,0004.63,0003.79
2022-07-09 10:41:00,,0832.3,5.00,0.00,29.8,28.1,00.0,38.6,31.6,26.3,0000.0,0011.07,0004.59,0003.78
2022-07-09 10:42:00,,0832.3,5.00,0.00,29.8,28.2,00.0,38.6,31.6,26.3,0000.0,0011.31,0004.55,0003.76
2022-07-09 10:43:00,,0832.2,4.99,0.00,29.8,28.3,00.0,38.6,31.6,26.1,0000.0,0011.13,0004.50,0003.75
2022-07-09 10:44:00,,0832.3,5.00,0.00,29.8,28.4,00.0,38.6,31.7,26.1,0000.0,0010.99,0004.50,0003.74
2022-07-09 10:45:00,,0832.3,5.00,0.00,29.8,28.5,00.0,38.6,31.7,26.0,0000.0,0011.17,0004.50,0003.72
2022-07-09 10:46:00,,0832.3,5.00,0.00,29.8,28.6,00.0,38.6,31.7,25.9,0000.0,0011.43,0004.49,0003.71
2022-07-09 10:47:00,,0832.3,5.00,0.00,29.9,28.6,00.0,38.7,31.7,25.9,0000.0,0011.50,0004.49,0003.71
2022-07-09 10:48:00,,0832.3,5.00,0.00,29.9,28.7,00.0,38.7,31.8,25.8,0000.0,0011.46,0004.50,0003.71
2022-07-09 10:49:00,,0832.3,5.00,0.00,29.9,28.8,00.0,38.7,31.7,25.8,0000.0,0011.52,0004.54,0003.73
2022-07-09 10:50:00,,0832.3,4.99,0.00,29.9,28.8,00.0,38.7,31.7,25.7,0000.0,0010.65,0004.54,0003.74
2022-07-09 10:51:00,,0832.3,4.99,0.00,29.9,28.9,00.0,38.7,31.8,25.5,0000.0,0010.94,0004.53,0003.76
2022-07-09 10:52:00,,0832.4,5.00,0.00,30.0,28.9,00.0,38.7,31.9,25.3,0000.0,0010.58,0004.51,0003.76
2022-07-09 10:53:00,,0832.3,5.01,0.00,30.0,28.9,00.0,38.7,31.9,24.9,0000.0,0010.60,0004.51,0003.76
2022-07-09 10:54:00,,0832.3,5.00,0.00,30.0,29.0,00.0,38.8,31.9,24.6,0000.0,0010.66,0004.51,0003.75
2022-07-09 10:55:00,,0832.3,5.00,0.00,30.0,29.0,00.0,38.8,31.9,24.5,0000.0,0011.11,0004.47,0003.74
2022-07-09 10:56:00,,0832.3,5.00,0.00,30.1,29.0,00.0,38.8,32.0,24.4,0000.0,0010.70,0004.45,0003.73
2022-07-09 10:57:00,,0832.3,5.00,0.00,30.1,29.1,00.0,38.8,32.0,24.4,0000.0,0010.14,0004.40,0003.71
2022-07-09 10:58:00,,0832.3,4.99,0.00,30.1,29.1,00.0,38.8,32.0,24.5,0000.0,0010.01,0004.39,0003.70
2022-07-09 10:59:00,,0832.3,5.00,0.00,30.1,28.9,00.0,38.8,32.0,24.8,0000.0,0010.34,0004.38,0003.69
